Location: *
(50.5836°N, 7.7828°E)
Time: 21:33:12
(UTC+00:00)

Daily predictions for brighter satellites

Satellite Brightness Start Highest point End
(mag) Time Altitude Azimuth Time Altitude Azimuth Time Altitude Azimuth
Unknown 3.7 16:55:00 10° WSW 16:59:08 73° SSE 17:03:17 10° ENE
Unknown 3.6 16:55:29 10° WSW 16:59:32 88° SSE 17:03:36 10° ENE
Unknown 3.7 16:56:41 10° WSW 17:00:49 75° SSE 17:04:57 10° ENE
SL-4 R/B 4.1 16:59:20 10° W 17:02:39 25° SW 17:05:45 10° SSE
Cosmos 2082 Rocket 3.2 16:58:08 10° NNW 17:03:01 28° NE 17:07:52 10° E
H-2A R/B 3.0 16:59:43 10° S 17:03:37 79° WSW 17:07:34 10° NNW
GP-B 4.2 16:59:34 10° N 17:03:53 50° W 17:08:10 10° SSW
Unknown 3.6 17:00:43 10° W 17:04:32 67° N 17:08:21 10° ENE
Cosmos 1726 Rocket 3.8 17:01:06 10° SSE 17:05:18 45° E 17:09:28 10° NNE
Cosmos 2228 3.2 17:02:55 10° S 17:07:08 50° E 17:11:21 10° NNE
Unknown 3.6 17:03:14 10° WSW 17:07:24 80° SSE 17:11:33 10° ENE
Unknown 3.6 17:04:58 10° WSW 17:09:07 81° SSE 17:13:17 10° ENE
Gbstr 26 Del rocket 4.0 17:03:51 10° WNW 17:09:33 86° NNE 17:16:38 10° E
Cosmos 1703 3.9 17:06:36 10° N 17:10:16 35° ENE 17:13:54 10° SE
Shenzhou-11 Module 4.1 17:08:31 10° SW 17:10:23 16° S 17:12:15 10° SE
YAOGAN 6 3.1 17:07:10 10° SE 17:10:36 39° ENE 17:14:01 10° N
Unknown 3.6 17:06:36 10° WSW 17:10:45 82° SSE 17:14:55 10° ENE
ASTEX 1 3.8 17:06:07 10° NNE 17:10:51 43° E 17:15:34 10° SSE
CSL-04 Debris 4.5 17:05:44 10° SE 17:10:56 47° ENE 17:16:11 10° N
COSMOS 2406 3.3 17:05:12 10° NNW 17:10:59 67° ENE 17:16:42 10° SE
Envisat 3.0 17:07:06 10° SSE 17:12:09 69° ENE 17:17:13 10° N
Unknown 3.6 17:08:15 10° WSW 17:12:25 84° SSE 17:16:34 10° ENE
Unknown 3.6 17:09:55 10° WSW 17:14:04 85° SSE 17:18:14 10° ENE
Unknown 3.6 17:10:46 10° W 17:14:39 68° NNW 17:18:30 10° ENE
Cosmos 2084 3.6 17:11:08 10° SW 17:15:39 73° SE 17:20:05 10° NE
Cosmos 304 Rocket 4.3 17:11:16 10° SW 17:16:01 62° WNW 17:20:48 10° NNE
Cosmos 921 Rocket 3.3 17:12:01 10° S 17:16:21 48° ESE 17:20:40 10° NNE
EO 1 Delta rocket 4.4 17:12:41 10° SE 17:16:55 37° ENE 17:21:31 10° N
FALCON 9 DEB 3.4 17:13:41 10° WNW 17:17:07 60° N 17:20:20 12° E
Unknown 3.6 17:13:16 10° WSW 17:17:26 87° SSE 17:21:29 11° ENE
Unknown 3.3 17:15:29 10° WNW 17:18:53 62° N 17:21:58 12° E
Cosmos 292 Rocket 4.4 17:14:45 10° SSE 17:19:01 35° ESE 17:23:20 10° NE
Starlink (trailer) 3.6 17:14:54 10° WSW 17:19:04 88° SSE 17:23:03 11° ENE
Unknown 3.6 17:16:34 10° WSW 17:20:43 90° SSE 17:24:39 11° ENE
Unknown 3.6 17:18:12 10° WSW 17:22:22 89° N 17:26:14 12° ENE
Cosmos 1844 Rocket 2.7 17:16:58 10° SSW 17:22:39 86° ESE 17:28:19 10° NNE
Cosmos 2058 Rocket 3.3 17:19:01 10° SSE 17:23:10 46° E 17:27:20 10° NNE
Cosmos 1356 4.0 17:21:10 10° SSE 17:24:19 35° E 17:27:30 10° NNE
Cosmos 1953 2.5 17:21:43 10° SSW 17:25:46 78° W 17:29:52 10° N
Unknown 3.4 17:22:32 10° WNW 17:26:02 60° N 17:28:54 14° E
Unknown 3.6 17:24:33 10° WSW 17:28:43 85° NNW 17:32:18 14° ENE
Unknown 3.6 17:24:52 10° WSW 17:29:02 85° NNW 17:32:37 14° ENE
Unknown 3.6 17:25:31 10° WSW 17:29:40 84° NNW 17:33:14 14° ENE
Okean-O 3.6 17:26:52 10° S 17:31:11 53° W 17:35:33 10° NNW
USA 116 4.1 17:28:54 10° NE 17:31:43 29° E 17:34:38 10° SSE
Meteor 1-11 4.3 17:26:01 10° N 17:31:44 60° ENE 17:37:28 10° SSE
Unknown 3.6 17:29:07 10° WSW 17:33:17 82° NNW 17:36:41 15° ENE
FengYun 1-2 T 4.3 17:27:57 10° SSE 17:33:37 84° ENE 17:39:15 10° NNW
Unknown 3.6 17:29:54 10° WSW 17:34:04 82° NNW 17:37:27 15° ENE
Falcon 9 debris 3.2 17:32:09 10° WNW 17:35:36 68° NNE 17:38:02 18° E
Unknown 3.7 17:31:40 10° WSW 17:35:50 80° NNW 17:39:09 16° ENE
BREEZE-M DEB (TANK) 3.7 17:31:44 10° WNW 17:35:54 76° SSW 17:46:45 10° ESE
SWAS 4.4 17:31:52 10° SSW 17:36:08 78° ESE 17:40:27 10° NNE
COSMO-SKYMED 1 2.5 17:32:57 10° NNE 17:37:18 64° ESE 17:41:36 10° S
Meteor 1-16 Rocket 4.1 17:32:06 10° S 17:37:37 72° E 17:43:00 10° NNE
Cosmos 1821 Rocket 4.5 17:31:38 10° NNW 17:37:40 65° W 17:43:44 10° S
Lacrosse 5 2.0 17:32:38 10° WNW 17:37:41 62° NNE 17:41:43 16° ESE
Cosmos 1605 Rocket 4.0 17:31:59 10° N 17:38:09 61° ENE 17:44:12 10° SSE
Unknown 3.7 17:35:00 10° WSW 17:39:09 78° NNW 17:42:20 17° ENE
Unknown 3.7 17:35:18 10° WSW 17:39:27 79° NNW 17:42:37 17° ENE
SJ 16-02 3.3 17:37:32 10° NNE 17:39:34 13° NE 17:40:24 12° ENE
Unknown 3.7 17:36:33 10° WSW 17:40:43 78° NNW 17:43:50 17° ENE
Cosmos 1908 3.5 17:38:14 10° SSE 17:41:57 43° E 17:45:40 10° NNE
Unknown 3.7 17:39:43 10° WSW 17:43:52 77° NNW 17:46:52 18° ENE
Cosmos 2278 Rocket 2.7 17:41:32 10° S 17:46:44 38° ESE 17:51:57 10° NE
Cosmos 1934 Rocket 4.1 17:40:38 10° N 17:46:59 84° W 17:53:21 10° S
Unknown 3.7 17:43:11 10° W 17:47:20 75° NNW 17:50:11 20° ENE
ATLAS 5 CENTAUR R/B 2.5 17:43:17 10° WSW 17:47:33 49° NW 17:52:27 10° NE
Unknown 3.2 17:45:12 10° WNW 17:48:43 71° NNE 17:50:40 24° E
Unknown 3.7 17:44:52 10° W 17:49:01 74° NNW 17:51:48 20° ENE
Cosmos 1727 Rocket 4.3 17:44:45 10° SSE 17:50:25 40° E 17:56:07 10° NNE
Unknown 3.7 17:46:31 10° W 17:50:40 73° NNW 17:53:23 21° ENE
Cosmos 1844 3.9 17:46:16 10° SW 17:51:59 75° WNW 17:57:49 10° NNE
Unknown 3.7 17:48:11 10° W 17:52:20 73° NNW 17:54:59 22° ENE
Lacrosse 5 rocket 4.0 17:50:06 10° W 17:52:22 15° SW 17:54:41 10° SSW
IRS-1A Rocket 4.5 17:47:55 10° SE 17:53:11 48° ENE 17:58:28 10° N
Resurs 01 Rocket 3.8 17:55:09 10° NE 17:55:09 10° NE 17:55:29 10° NE
Ariane Rocket 3.1 17:49:51 10° SE 17:54:47 52° ENE 17:59:45 10° N
Unknown 3.7 17:51:34 10° W 17:55:42 71° NNW 17:58:12 23° ENE
Unknown 3.7 17:53:16 10° W 17:57:25 70° NNW 17:59:51 24° ENE
Unknown 3.7 17:54:52 10° W 17:59:01 70° NNW 18:01:22 24° ENE
Cosmos 1939 Rocket 2.9 17:55:47 10° SSE 17:59:42 59° ENE 18:03:43 10° N
Abrixas rocket 3.6 17:58:17 10° SSW 18:00:39 20° SSE 18:00:46 20° SSE
Unknown 3.7 17:56:31 10° W 18:00:39 70° NNW 18:02:57 25° ENE
COBE Rocket 4.4 17:55:44 10° N 18:00:53 66° WNW 18:05:56 10° SSW
Unknown 3.8 17:56:57 10° W 18:01:05 69° N 18:03:22 25° ENE
Cosmos 1461 2.7 17:57:38 10° NW 18:01:43 77° NE 18:04:28 21° SE
Cosmos 1328 4.5 17:58:02 10° NNW 18:01:58 57° W 18:05:50 10° S
Cosmos 1242 Rocket 3.9 17:59:15 10° NNW 18:02:47 43° W 18:06:17 10° SSW
Unknown 3.7 17:59:39 10° W 18:03:48 70° NNW 18:05:59 27° ENE
NOSS 3-2 (A) 4.2 18:01:44 10° S 18:06:36 28° ESE 18:08:33 24° E
CSL-04 Rocket 4.0 18:01:21 10° S 18:06:53 70° WSW 18:12:22 10° NNW
Unknown 3.8 18:03:03 10° W 18:07:12 68° N 18:09:13 29° ENE
Unknown 3.8 18:04:41 10° W 18:08:49 68° N 18:10:46 29° ENE
Cosmos 2084 Rocket 3.8 18:05:01 10° NW 18:09:22 50° NE 18:11:04 32° E
Cosmos 1726 2.6 18:05:47 10° SSW 18:09:23 61° WNW 18:13:01 10° N
Unknown 3.8 18:06:37 10° W 18:10:45 66° N 18:12:37 31° ENE
NOSS 3-3 (A) 4.5 18:03:32 10° NW 18:10:51 72° NE 18:16:52 20° SE
Unknown 4.2 18:08:01 10° W 18:10:55 35° SSW 18:12:18 23° SSE
NOSS 3-3 (C) 4.5 18:03:38 10° NW 18:10:56 72° NE 18:16:55 20° SE
Unknown 3.8 18:07:59 10° W 18:12:07 67° N 18:13:56 31° ENE
Cosmos 1777 Rocket 4.4 18:08:03 10° NNW 18:13:15 65° WSW 18:18:23 10° S
Unknown 3.8 18:09:40 10° W 18:13:49 66° N 18:15:34 32° ENE
Cosmos 967 Rocket 4.5 18:08:16 10° NW 18:14:46 76° NE 18:19:24 20° SE
HJ-1C 3.4 18:14:01 39° SE 18:14:59 57° ENE 18:18:19 10° N
NOAA 11 4.1 18:11:39 10° SSE 18:17:06 89° ENE 18:22:35 10° NNW
Unknown 3.8 18:13:03 10° W 18:17:11 65° N 18:18:48 35° ENE
Unknown 3.8 18:14:43 10° W 18:18:51 65° N 18:20:24 36° ENE
SPOT 3 Rocket 4.1 18:17:55 31° E 18:19:25 37° ENE 18:24:11 10° N
ATLAS CENTAUR R/B 3.6 18:17:14 10° NNW 18:20:04 16° N 18:21:38 13° NE
Cosmos 2100 Rocket 4.0 18:14:19 10° N 18:20:25 54° ENE 18:25:37 14° SSE
Unknown 3.8 18:16:24 10° W 18:20:32 65° N 18:22:00 37° ENE
ARGOS 3.9 18:19:44 30° E 18:20:49 33° ENE 18:25:36 10° N
Cosmos 1812 Rocket 3.6 18:16:57 10° S 18:21:16 55° E 18:25:39 10° NNE
Unknown 3.8 18:18:04 10° W 18:22:11 64° N 18:23:35 38° ENE
Cosmos 1833 Rocket 2.8 18:17:44 10° NNW 18:23:22 77° WSW 18:28:56 10° SSE
Cosmos 1076 Rocket 3.4 18:20:06 10° N 18:24:29 66° ENE 18:27:00 24° SSE
CZ-4 R/B 3.3 18:21:02 10° SSW 18:24:50 33° W 18:28:42 10° NNW
Unknown 3.4 18:21:18 10° WNW 18:25:02 65° N 18:25:43 52° ENE
Unknown 3.8 18:21:22 10° W 18:25:30 64° N 18:26:45 41° ENE
SJ-11-01 4.4 18:24:11 33° SE 18:26:00 52° ENE 18:30:35 10° N
Unknown 3.8 18:22:47 10° W 18:26:54 63° N 18:28:06 42° NE
BREEZE-M DEB (TANK) 3.5 18:18:44 10° SW 18:27:07 37° SSE 18:28:00 33° SE
Unknown 3.8 18:23:20 10° W 18:27:28 62° N 18:28:37 42° NE
CZ-2D R/B 3.7 18:25:14 10° S 18:29:02 61° W 18:32:53 10° NNW
Unknown 3.8 18:24:58 10° W 18:29:06 62° N 18:30:12 44° NE
YAOGAN 1 4.1 18:26:47 10° SSW 18:30:49 38° W 18:34:53 10° NNW
Unknown 3.8 18:28:04 10° W 18:32:11 62° N 18:33:10 46° NE
Cosmos 1153 Rocket 4.5 18:27:55 10° N 18:34:05 84° W 18:40:14 10° S
Unknown 3.8 18:31:24 10° W 18:35:32 62° N 18:36:21 49° NE
Unknown 3.8 18:32:25 10° W 18:36:29 61° N 18:37:12 51° NE
H-2A R/B 2.4 18:35:44 41° E 18:36:37 44° ENE 18:41:44 10° N
Unknown 3.8 18:33:06 10° W 18:37:13 62° N 18:37:59 51° NE
Unknown 3.8 18:34:44 10° W 18:38:52 61° N 18:39:33 52° NE
Unknown 3.8 18:34:55 10° W 18:38:56 60° N 18:39:29 53° NE
Unknown 3.8 18:36:25 10° W 18:40:33 61° N 18:41:10 53° NE
Cosmos 2016 Rocket 4.1 18:35:49 10° N 18:41:55 51° ENE 18:43:50 39° ESE
Unknown 3.5 18:39:22 10° WNW 18:43:11 64° N 18:43:14 64° NNE
BREEZE-M DEB (TANK) 4.0 18:40:41 10° SW 18:42:39 23° SSW 18:42:39 23° SSW
Meteor 2-1 Rocket 4.2 18:39:56 10° S 18:45:14 52° E 18:50:38 10° NNE
ADEOS Rocket 3.7 18:38:12 10° NNE 18:45:34 44° E 18:52:26 10° SSE
Unknown 3.8 18:43:01 10° W 18:47:08 61° N 18:47:29 58° NNE
Cosmos 2082 Rocket 2.4 18:41:57 10° NNW 18:47:40 73° WSW 18:51:05 25° SSE
Unknown 3.8 18:44:46 10° W 18:48:53 61° N 18:49:09 59° NNE
Unknown 3.8 18:46:25 10° W 18:50:31 61° N 18:50:43 60° NNE
Unknown 3.8 18:48:04 10° W 18:52:11 61° N 18:52:18 60° N
Unknown 3.7 18:49:40 10° WNW 18:53:16 62° NNW 18:53:16 62° NNW
Unknown 3.8 18:49:44 10° W 18:53:51 60° N 18:53:54 60° N
FALCON 9 DEB 4.0 18:50:50 10° WNW 18:53:41 48° WSW 18:53:41 48° WSW
Cosmos 2151 4.0 18:51:06 10° N 18:53:49 34° NNE 18:53:49 34° NNE
Unknown 4.2 18:52:26 10° WNW 18:55:05 41° WSW 18:55:05 41° WSW
Cosmos 1898 Rocket 3.4 18:50:52 10° NNW 18:56:09 69° ENE 18:56:41 63° ESE
Unknown 3.9 18:53:06 10° W 18:57:08 60° N 18:57:08 60° N
Starlink (trailer) 3.9 18:54:44 10° W 18:58:41 60° NNW 18:58:41 60° NNW
Unknown 4.0 18:56:25 10° W 19:00:17 59° NNW 19:00:17 59° NNW
Cosmos 2058 3.1 18:57:04 10° NNW 19:01:17 73° W 19:01:38 68° SW
SJ-6B 3.9 19:03:36 35° N 19:03:36 35° N 19:05:54 10° NNW
Unknown 4.0 18:58:03 10° W 19:01:53 59° NNW 19:01:53 59° NNW
Cosmos 2061 Rocket 3.8 18:56:00 10° N 19:02:17 73° ENE 19:04:09 47° SSE
Unknown 4.4 18:59:50 10° WNW 19:02:22 40° W 19:02:22 40° W
ATLAS 3B R/B 4.2 18:59:36 10° S 19:01:17 17° S 19:01:17 17° S
Unknown 4.2 19:04:25 10° WNW 19:07:57 54° NW 19:07:57 54° NW
Unknown 4.2 19:04:44 10° W 19:08:16 54° NW 19:08:16 54° NW
Unknown 4.2 19:05:22 10° WNW 19:08:52 53° NW 19:08:52 53° NW
CZ-2C R/B 3.4 19:12:02 56° NE 19:12:02 56° NE 19:17:20 10° N
Unknown 4.4 19:08:57 10° WNW 19:12:18 50° NW 19:12:18 50° NW
Unknown 4.4 19:09:46 10° WNW 19:13:06 50° NW 19:13:06 50° NW
In-Cosmos 22 Rocket 4.2 19:08:42 10° NNW 19:14:05 74° W 19:15:45 45° S
Unknown 4.5 19:11:33 10° WNW 19:14:48 48° NW 19:14:48 48° NW
CENTAUR R/B 4.5 19:10:49 10° S 19:11:09 12° S 19:11:09 12° S
Cosmos 1459 Rocket 4.2 19:12:37 10° NNW 19:18:47 69° W 19:23:03 21° S
SJ 16-02 2.4 19:14:36 10° NNW 19:17:24 38° N 19:17:24 38° N
Lacrosse 5 2.6 19:15:47 10° WNW 19:20:34 43° SW 19:20:55 42° SSW
Resurs 01 Rocket 3.4 19:32:44 24° N 19:32:44 24° N 19:34:33 10° N
Cosmos 2278 Rocket 3.2 19:25:20 10° SW 19:30:46 45° NW 19:36:14 10° NNE
USA 238 DEB 3.6 19:25:00 10° SW 19:31:44 85° NW 19:33:52 49° NE
USA 238 3.6 19:25:06 10° SW 19:31:51 85° NW 19:33:55 50° NE
ATLAS 5 CENTAUR R/B 3.8 19:29:41 10° WNW 19:33:24 22° N 19:34:48 20° NNE
Cosmos 1937 Rocket 4.3 19:47:28 10° NNW 19:51:20 47° WNW 19:51:20 47° WNW
Cosmos 2123 Rocket 4.4 19:56:11 55° N 19:56:11 55° N 20:01:02 10° N
NOSS 3-2 (A) 3.7 19:50:52 10° SW 19:56:02 65° W 19:56:02 65° W
ATLAS CENTAUR R/B 3.9 19:56:12 10° NNW 19:57:49 19° NNW 19:57:49 19° NNW
ARGOS 4.0 20:01:15 46° W 20:01:15 46° W 20:06:10 10° NNW
Cosmos 1725 Rocket 4.4 19:56:44 10° NNW 20:02:53 59° W 20:03:03 58° W
Cosmos 2233 Rocket 4.4 19:59:26 10° N 20:04:19 56° NNW 20:04:19 56° NNW
H-2A R/B 3.6 20:16:22 33° W 20:16:22 33° W 20:21:02 10° NNW
ADEOS Rocket 4.2 20:23:41 10° N 20:31:07 51° WNW 20:38:08 10° SW
